Index of /20260504/WXO-DD/model_rdps/10km/00/073
Name Last modified Size Description
Parent Directory -
20260504T00Z_MSC_RDPS_AbsoluteVorticity_IsbL-0250_RLatLon0.09_PT073H.grib2 2026-05-04 03:04 601K
20260504T00Z_MSC_RDPS_AbsoluteVorticity_IsbL-0500_RLatLon0.09_PT073H.grib2 2026-05-04 03:04 558K
20260504T00Z_MSC_RDPS_AbsoluteVorticity_IsbL-0700_RLatLon0.09_PT073H.grib2 2026-05-04 03:04 611K
20260504T00Z_MSC_RDPS_AbsoluteVorticity_IsbL-0850_RLatLon0.09_PT073H.grib2 2026-05-04 03:04 777K
20260504T00Z_MSC_RDPS_AirTemp_AGL-120m_RLatLon0.09_PT073H.grib2 2026-05-04 03:04 386K
20260504T00Z_MSC_RDPS_AirTemp_AGL-2m_RLatLon0.09_PT073H.grib2 2026-05-04 03:04 621K
20260504T00Z_MSC_RDPS_AirTemp_AGL-40m_RLatLon0.09_PT073H.grib2 2026-05-04 03:04 397K
20260504T00Z_MSC_RDPS_AirTemp_AGL-80m_RLatLon0.09_PT073H.grib2 2026-05-04 03:04 390K
20260504T00Z_MSC_RDPS_AirTemp_IsbL-0001_RLatLon0.09_PT073H.grib2 2026-05-04 03:04 302K
20260504T00Z_MSC_RDPS_AirTemp_IsbL-0005_RLatLon0.09_PT073H.grib2 2026-05-04 03:04 287K
20260504T00Z_MSC_RDPS_AirTemp_IsbL-0010_RLatLon0.09_PT073H.grib2 2026-05-04 03:04 390K
20260504T00Z_MSC_RDPS_AirTemp_IsbL-0020_RLatLon0.09_PT073H.grib2 2026-05-04 03:04 319K
20260504T00Z_MSC_RDPS_AirTemp_IsbL-0030_RLatLon0.09_PT073H.grib2 2026-05-04 03:04 335K
20260504T00Z_MSC_RDPS_AirTemp_IsbL-0050_RLatLon0.09_PT073H.grib2 2026-05-04 03:04 311K
20260504T00Z_MSC_RDPS_AirTemp_IsbL-0100_RLatLon0.09_PT073H.grib2 2026-05-04 03:04 417K
20260504T00Z_MSC_RDPS_AirTemp_IsbL-0150_RLatLon0.09_PT073H.grib2 2026-05-04 03:04 407K
20260504T00Z_MSC_RDPS_AirTemp_IsbL-0175_RLatLon0.09_PT073H.grib2 2026-05-04 03:04 402K
20260504T00Z_MSC_RDPS_AirTemp_IsbL-0200_RLatLon0.09_PT073H.grib2 2026-05-04 03:04 410K
20260504T00Z_MSC_RDPS_AirTemp_IsbL-0225_RLatLon0.09_PT073H.grib2 2026-05-04 03:04 413K
20260504T00Z_MSC_RDPS_AirTemp_IsbL-0250_RLatLon0.09_PT073H.grib2 2026-05-04 03:04 419K
20260504T00Z_MSC_RDPS_AirTemp_IsbL-0275_RLatLon0.09_PT073H.grib2 2026-05-04 03:04 398K
20260504T00Z_MSC_RDPS_AirTemp_IsbL-0300_RLatLon0.09_PT073H.grib2 2026-05-04 03:04 406K
20260504T00Z_MSC_RDPS_AirTemp_IsbL-0350_RLatLon0.09_PT073H.grib2 2026-05-04 03:04 422K
20260504T00Z_MSC_RDPS_AirTemp_IsbL-0400_RLatLon0.09_PT073H.grib2 2026-05-04 03:04 425K
20260504T00Z_MSC_RDPS_AirTemp_IsbL-0450_RLatLon0.09_PT073H.grib2 2026-05-04 03:04 432K
20260504T00Z_MSC_RDPS_AirTemp_IsbL-0500_RLatLon0.09_PT073H.grib2 2026-05-04 03:04 441K
20260504T00Z_MSC_RDPS_AirTemp_IsbL-0550_RLatLon0.09_PT073H.grib2 2026-05-04 03:04 458K
20260504T00Z_MSC_RDPS_AirTemp_IsbL-0600_RLatLon0.09_PT073H.grib2 2026-05-04 03:04 439K
20260504T00Z_MSC_RDPS_AirTemp_IsbL-0650_RLatLon0.09_PT073H.grib2 2026-05-04 03:04 453K
20260504T00Z_MSC_RDPS_AirTemp_IsbL-0700_RLatLon0.09_PT073H.grib2 2026-05-04 03:04 371K
20260504T00Z_MSC_RDPS_AirTemp_IsbL-0750_RLatLon0.09_PT073H.grib2 2026-05-04 03:04 402K
20260504T00Z_MSC_RDPS_AirTemp_IsbL-0800_RLatLon0.09_PT073H.grib2 2026-05-04 03:04 445K
20260504T00Z_MSC_RDPS_AirTemp_IsbL-0850_RLatLon0.09_PT073H.grib2 2026-05-04 03:04 494K
20260504T00Z_MSC_RDPS_AirTemp_IsbL-0875_RLatLon0.09_PT073H.grib2 2026-05-04 03:04 516K
20260504T00Z_MSC_RDPS_AirTemp_IsbL-0900_RLatLon0.09_PT073H.grib2 2026-05-04 03:04 523K
20260504T00Z_MSC_RDPS_AirTemp_IsbL-0925_RLatLon0.09_PT073H.grib2 2026-05-04 03:04 521K
20260504T00Z_MSC_RDPS_AirTemp_IsbL-0950_RLatLon0.09_PT073H.grib2 2026-05-04 03:04 514K
20260504T00Z_MSC_RDPS_AirTemp_IsbL-0970_RLatLon0.09_PT073H.grib2 2026-05-04 03:04 509K
20260504T00Z_MSC_RDPS_AirTemp_IsbL-0985_RLatLon0.09_PT073H.grib2 2026-05-04 03:04 501K
20260504T00Z_MSC_RDPS_AirTemp_IsbL-1000_RLatLon0.09_PT073H.grib2 2026-05-04 03:04 483K
20260504T00Z_MSC_RDPS_AirTemp_IsbL-1015_RLatLon0.09_PT073H.grib2 2026-05-04 03:04 485K
20260504T00Z_MSC_RDPS_Albedo_Sfc_RLatLon0.09_PT073H.grib2 2026-05-04 03:04 157K
20260504T00Z_MSC_RDPS_CAPE_Sfc_RLatLon0.09_PT073H.grib2 2026-05-04 03:04 1.8M
20260504T00Z_MSC_RDPS_CIN_Sfc_RLatLon0.09_PT073H.grib2 2026-05-04 03:04 1.3M
20260504T00Z_MSC_RDPS_CloudWater_EAtm_RLatLon0.09_PT073H.grib2 2026-05-04 03:04 223K
20260504T00Z_MSC_RDPS_ConvectivePrecip-Accum_Sfc_RLatLon0.09_PT073H.grib2 2026-05-04 03:04 1.2M
20260504T00Z_MSC_RDPS_DewPointDepression_AGL-2m_RLatLon0.09_PT073H.grib2 2026-05-04 03:04 410K
20260504T00Z_MSC_RDPS_DewPointDepression_IsbL-0001_RLatLon0.09_PT073H.grib2 2026-05-04 03:04 193
20260504T00Z_MSC_RDPS_DewPointDepression_IsbL-0005_RLatLon0.09_PT073H.grib2 2026-05-04 03:04 193
20260504T00Z_MSC_RDPS_DewPointDepression_IsbL-0010_RLatLon0.09_PT073H.grib2 2026-05-04 03:04 193
20260504T00Z_MSC_RDPS_DewPointDepression_IsbL-0020_RLatLon0.09_PT073H.grib2 2026-05-04 03:04 193
20260504T00Z_MSC_RDPS_DewPointDepression_IsbL-0030_RLatLon0.09_PT073H.grib2 2026-05-04 03:04 193
20260504T00Z_MSC_RDPS_DewPointDepression_IsbL-0050_RLatLon0.09_PT073H.grib2 2026-05-04 03:04 86K
20260504T00Z_MSC_RDPS_DewPointDepression_IsbL-0100_RLatLon0.09_PT073H.grib2 2026-05-04 03:04 114K
20260504T00Z_MSC_RDPS_DewPointDepression_IsbL-0150_RLatLon0.09_PT073H.grib2 2026-05-04 03:04 140K
20260504T00Z_MSC_RDPS_DewPointDepression_IsbL-0175_RLatLon0.09_PT073H.grib2 2026-05-04 03:04 185K
20260504T00Z_MSC_RDPS_DewPointDepression_IsbL-0200_RLatLon0.09_PT073H.grib2 2026-05-04 03:04 227K
20260504T00Z_MSC_RDPS_DewPointDepression_IsbL-0225_RLatLon0.09_PT073H.grib2 2026-05-04 03:04 260K
20260504T00Z_MSC_RDPS_DewPointDepression_IsbL-0250_RLatLon0.09_PT073H.grib2 2026-05-04 03:04 301K
20260504T00Z_MSC_RDPS_DewPointDepression_IsbL-0275_RLatLon0.09_PT073H.grib2 2026-05-04 03:04 310K
20260504T00Z_MSC_RDPS_DewPointDepression_IsbL-0300_RLatLon0.09_PT073H.grib2 2026-05-04 03:04 327K
20260504T00Z_MSC_RDPS_DewPointDepression_IsbL-0350_RLatLon0.09_PT073H.grib2 2026-05-04 03:04 333K
20260504T00Z_MSC_RDPS_DewPointDepression_IsbL-0400_RLatLon0.09_PT073H.grib2 2026-05-04 03:04 345K
20260504T00Z_MSC_RDPS_DewPointDepression_IsbL-0450_RLatLon0.09_PT073H.grib2 2026-05-04 03:04 349K
20260504T00Z_MSC_RDPS_DewPointDepression_IsbL-0500_RLatLon0.09_PT073H.grib2 2026-05-04 03:04 351K
20260504T00Z_MSC_RDPS_DewPointDepression_IsbL-0550_RLatLon0.09_PT073H.grib2 2026-05-04 03:04 363K
20260504T00Z_MSC_RDPS_DewPointDepression_IsbL-0600_RLatLon0.09_PT073H.grib2 2026-05-04 03:04 370K
20260504T00Z_MSC_RDPS_DewPointDepression_IsbL-0650_RLatLon0.09_PT073H.grib2 2026-05-04 03:04 375K
20260504T00Z_MSC_RDPS_DewPointDepression_IsbL-0700_RLatLon0.09_PT073H.grib2 2026-05-04 03:04 384K
20260504T00Z_MSC_RDPS_DewPointDepression_IsbL-0750_RLatLon0.09_PT073H.grib2 2026-05-04 03:04 403K
20260504T00Z_MSC_RDPS_DewPointDepression_IsbL-0800_RLatLon0.09_PT073H.grib2 2026-05-04 03:04 444K
20260504T00Z_MSC_RDPS_DewPointDepression_IsbL-0850_RLatLon0.09_PT073H.grib2 2026-05-04 03:04 478K
20260504T00Z_MSC_RDPS_DewPointDepression_IsbL-0875_RLatLon0.09_PT073H.grib2 2026-05-04 03:04 479K
20260504T00Z_MSC_RDPS_DewPointDepression_IsbL-0900_RLatLon0.09_PT073H.grib2 2026-05-04 03:04 469K
20260504T00Z_MSC_RDPS_DewPointDepression_IsbL-0925_RLatLon0.09_PT073H.grib2 2026-05-04 03:04 456K
20260504T00Z_MSC_RDPS_DewPointDepression_IsbL-0950_RLatLon0.09_PT073H.grib2 2026-05-04 03:04 440K
20260504T00Z_MSC_RDPS_DewPointDepression_IsbL-0970_RLatLon0.09_PT073H.grib2 2026-05-04 03:04 431K
20260504T00Z_MSC_RDPS_DewPointDepression_IsbL-0985_RLatLon0.09_PT073H.grib2 2026-05-04 03:04 429K
20260504T00Z_MSC_RDPS_DewPointDepression_IsbL-1000_RLatLon0.09_PT073H.grib2 2026-05-04 03:04 426K
20260504T00Z_MSC_RDPS_DewPointDepression_IsbL-1015_RLatLon0.09_PT073H.grib2 2026-05-04 03:04 414K
20260504T00Z_MSC_RDPS_DewPoint_AGL-2m_RLatLon0.09_PT073H.grib2 2026-05-04 03:04 308K
20260504T00Z_MSC_RDPS_DownwardLongwaveRadiationFlux-Accum_Sfc_RLatLon0.09_PT073H.grib2 2026-05-04 03:04 430K
20260504T00Z_MSC_RDPS_DownwardShortwaveRadiationFlux-Accum_NTAtm_RLatLon0.09_PT073H.grib2 2026-05-04 03:04 134K
20260504T00Z_MSC_RDPS_DownwardShortwaveRadiationFlux-Accum_Sfc_RLatLon0.09_PT073H.grib2 2026-05-04 03:04 634K
20260504T00Z_MSC_RDPS_FreezingRain-Accum1h_Sfc_RLatLon0.09_PT073H.grib2 2026-05-04 03:04 26K
20260504T00Z_MSC_RDPS_FreezingRain-Accum_Sfc_RLatLon0.09_PT073H.grib2 2026-05-04 03:04 206K
20260504T00Z_MSC_RDPS_GeopotentialHeight_IsbL-0001_RLatLon0.09_PT073H.grib2 2026-05-04 03:04 336K
20260504T00Z_MSC_RDPS_GeopotentialHeight_IsbL-0005_RLatLon0.09_PT073H.grib2 2026-05-04 03:04 333K
20260504T00Z_MSC_RDPS_GeopotentialHeight_IsbL-0010_RLatLon0.09_PT073H.grib2 2026-05-04 03:04 335K
20260504T00Z_MSC_RDPS_GeopotentialHeight_IsbL-0020_RLatLon0.09_PT073H.grib2 2026-05-04 03:04 301K
20260504T00Z_MSC_RDPS_GeopotentialHeight_IsbL-0030_RLatLon0.09_PT073H.grib2 2026-05-04 03:04 304K
20260504T00Z_MSC_RDPS_GeopotentialHeight_IsbL-0050_RLatLon0.09_PT073H.grib2 2026-05-04 03:04 304K
20260504T00Z_MSC_RDPS_GeopotentialHeight_IsbL-0100_RLatLon0.09_PT073H.grib2 2026-05-04 03:04 284K
20260504T00Z_MSC_RDPS_GeopotentialHeight_IsbL-0150_RLatLon0.09_PT073H.grib2 2026-05-04 03:04 226K
20260504T00Z_MSC_RDPS_GeopotentialHeight_IsbL-0175_RLatLon0.09_PT073H.grib2 2026-05-04 03:04 229K
20260504T00Z_MSC_RDPS_GeopotentialHeight_IsbL-0200_RLatLon0.09_PT073H.grib2 2026-05-04 03:04 233K
20260504T00Z_MSC_RDPS_GeopotentialHeight_IsbL-0225_RLatLon0.09_PT073H.grib2 2026-05-04 03:04 235K
20260504T00Z_MSC_RDPS_GeopotentialHeight_IsbL-0250_RLatLon0.09_PT073H.grib2 2026-05-04 03:04 237K
20260504T00Z_MSC_RDPS_GeopotentialHeight_IsbL-0275_RLatLon0.09_PT073H.grib2 2026-05-04 03:04 235K
20260504T00Z_MSC_RDPS_GeopotentialHeight_IsbL-0300_RLatLon0.09_PT073H.grib2 2026-05-04 03:04 235K
20260504T00Z_MSC_RDPS_GeopotentialHeight_IsbL-0350_RLatLon0.09_PT073H.grib2 2026-05-04 03:04 231K
20260504T00Z_MSC_RDPS_GeopotentialHeight_IsbL-0400_RLatLon0.09_PT073H.grib2 2026-05-04 03:04 227K
20260504T00Z_MSC_RDPS_GeopotentialHeight_IsbL-0450_RLatLon0.09_PT073H.grib2 2026-05-04 03:04 294K
20260504T00Z_MSC_RDPS_GeopotentialHeight_IsbL-0500_RLatLon0.09_PT073H.grib2 2026-05-04 03:04 289K
20260504T00Z_MSC_RDPS_GeopotentialHeight_IsbL-0550_RLatLon0.09_PT073H.grib2 2026-05-04 03:04 286K
20260504T00Z_MSC_RDPS_GeopotentialHeight_IsbL-0600_RLatLon0.09_PT073H.grib2 2026-05-04 03:04 283K
20260504T00Z_MSC_RDPS_GeopotentialHeight_IsbL-0650_RLatLon0.09_PT073H.grib2 2026-05-04 03:04 254K
20260504T00Z_MSC_RDPS_GeopotentialHeight_IsbL-0700_RLatLon0.09_PT073H.grib2 2026-05-04 03:04 333K
20260504T00Z_MSC_RDPS_GeopotentialHeight_IsbL-0750_RLatLon0.09_PT073H.grib2 2026-05-04 03:04 336K
20260504T00Z_MSC_RDPS_GeopotentialHeight_IsbL-0800_RLatLon0.09_PT073H.grib2 2026-05-04 03:04 342K
20260504T00Z_MSC_RDPS_GeopotentialHeight_IsbL-0850_RLatLon0.09_PT073H.grib2 2026-05-04 03:04 383K
20260504T00Z_MSC_RDPS_GeopotentialHeight_IsbL-0875_RLatLon0.09_PT073H.grib2 2026-05-04 03:04 386K
20260504T00Z_MSC_RDPS_GeopotentialHeight_IsbL-0900_RLatLon0.09_PT073H.grib2 2026-05-04 03:04 389K
20260504T00Z_MSC_RDPS_GeopotentialHeight_IsbL-0925_RLatLon0.09_PT073H.grib2 2026-05-04 03:04 393K
20260504T00Z_MSC_RDPS_GeopotentialHeight_IsbL-0950_RLatLon0.09_PT073H.grib2 2026-05-04 03:04 361K
20260504T00Z_MSC_RDPS_GeopotentialHeight_IsbL-0970_RLatLon0.09_PT073H.grib2 2026-05-04 03:04 364K
20260504T00Z_MSC_RDPS_GeopotentialHeight_IsbL-0985_RLatLon0.09_PT073H.grib2 2026-05-04 03:04 373K
20260504T00Z_MSC_RDPS_GeopotentialHeight_IsbL-1000_RLatLon0.09_PT073H.grib2 2026-05-04 03:04 384K
20260504T00Z_MSC_RDPS_GeopotentialHeight_IsbL-1015_RLatLon0.09_PT073H.grib2 2026-05-04 03:04 398K
20260504T00Z_MSC_RDPS_Humidex_Sfc_RLatLon0.09_PT073H.grib2 2026-05-04 03:04 2.2M
20260504T00Z_MSC_RDPS_IcePellets-Accum1h_Sfc_RLatLon0.09_PT073H.grib2 2026-05-04 03:04 6.6K
20260504T00Z_MSC_RDPS_IcePellets-Accum_Sfc_RLatLon0.09_PT073H.grib2 2026-05-04 03:04 49K
20260504T00Z_MSC_RDPS_KIndex_Sfc_RLatLon0.09_PT073H.grib2 2026-05-04 03:04 2.5M
20260504T00Z_MSC_RDPS_LatentHeatNetFlux_Sfc_RLatLon0.09_PT073H.grib2 2026-05-04 03:04 342K
20260504T00Z_MSC_RDPS_LiftedIndex-MU-VT_IsbL-0500_RLatLon0.09_PT073H.grib2 2026-05-04 03:04 2.4M
20260504T00Z_MSC_RDPS_NetLongwaveRadiationFlux-Accum_Sfc_RLatLon0.09_PT073H.grib2 2026-05-04 03:04 479K
20260504T00Z_MSC_RDPS_NetShortwaveRadiationFlux-Accum_Sfc_RLatLon0.09_PT073H.grib2 2026-05-04 03:04 631K
20260504T00Z_MSC_RDPS_PlanetaryBoundaryLayerHeight_Sfc_RLatLon0.09_PT073H.grib2 2026-05-04 03:04 1.0M
20260504T00Z_MSC_RDPS_Precip-Accum1h_Sfc_RLatLon0.09_PT073H.grib2 2026-05-04 03:04 1.3M
20260504T00Z_MSC_RDPS_Precip-Accum_Sfc_RLatLon0.09_PT073H.grib2 2026-05-04 03:04 2.2M
20260504T00Z_MSC_RDPS_PrecipRate_Sfc_RLatLon0.09_PT073H.grib2 2026-05-04 03:04 186K
20260504T00Z_MSC_RDPS_PrecipType-Instant_Sfc_RLatLon0.09_PT073H.grib2 2026-05-04 03:04 562K
20260504T00Z_MSC_RDPS_Pressure-Trend3h_Sfc_RLatLon0.09_PT073H.grib2 2026-05-04 03:04 1.2M
20260504T00Z_MSC_RDPS_Pressure_MSL_RLatLon0.09_PT073H.grib2 2026-05-04 03:04 289K
20260504T00Z_MSC_RDPS_Pressure_PVU-1.5_RLatLon0.09_PT073H.grib2 2026-05-04 03:04 2.3M
20260504T00Z_MSC_RDPS_Pressure_PVU-1_RLatLon0.09_PT073H.grib2 2026-05-04 03:04 2.4M
20260504T00Z_MSC_RDPS_Pressure_PVU-2_RLatLon0.09_PT073H.grib2 2026-05-04 03:04 2.4M
20260504T00Z_MSC_RDPS_Pressure_Sfc_RLatLon0.09_PT073H.grib2 2026-05-04 03:04 496K
20260504T00Z_MSC_RDPS_RadiativeTemp_Sfc_RLatLon0.09_PT073H.grib2 2026-05-04 03:04 307K
20260504T00Z_MSC_RDPS_Rain-Accum1h_Sfc_RLatLon0.09_PT073H.grib2 2026-05-04 03:04 634K
20260504T00Z_MSC_RDPS_Rain-Accum_Sfc_RLatLon0.09_PT073H.grib2 2026-05-04 03:04 1.9M
20260504T00Z_MSC_RDPS_RelativeHumidity_AGL-2m_RLatLon0.09_PT073H.grib2 2026-05-04 03:04 1.0M
20260504T00Z_MSC_RDPS_RelativeHumidity_IsbL-0010_RLatLon0.09_PT073H.grib2 2026-05-04 03:04 677K
20260504T00Z_MSC_RDPS_RelativeHumidity_IsbL-0020_RLatLon0.09_PT073H.grib2 2026-05-04 03:04 639K
20260504T00Z_MSC_RDPS_RelativeHumidity_IsbL-0030_RLatLon0.09_PT073H.grib2 2026-05-04 03:04 597K
20260504T00Z_MSC_RDPS_RelativeHumidity_IsbL-0050_RLatLon0.09_PT073H.grib2 2026-05-04 03:04 256K
20260504T00Z_MSC_RDPS_RelativeHumidity_IsbL-0100_RLatLon0.09_PT073H.grib2 2026-05-04 03:04 273K
20260504T00Z_MSC_RDPS_RelativeHumidity_IsbL-0150_RLatLon0.09_PT073H.grib2 2026-05-04 03:04 413K
20260504T00Z_MSC_RDPS_RelativeHumidity_IsbL-0175_RLatLon0.09_PT073H.grib2 2026-05-04 03:04 473K
20260504T00Z_MSC_RDPS_RelativeHumidity_IsbL-0200_RLatLon0.09_PT073H.grib2 2026-05-04 03:04 552K
20260504T00Z_MSC_RDPS_RelativeHumidity_IsbL-0225_RLatLon0.09_PT073H.grib2 2026-05-04 03:04 620K
20260504T00Z_MSC_RDPS_RelativeHumidity_IsbL-0250_RLatLon0.09_PT073H.grib2 2026-05-04 03:04 684K
20260504T00Z_MSC_RDPS_RelativeHumidity_IsbL-0275_RLatLon0.09_PT073H.grib2 2026-05-04 03:04 706K
20260504T00Z_MSC_RDPS_RelativeHumidity_IsbL-0300_RLatLon0.09_PT073H.grib2 2026-05-04 03:04 751K
20260504T00Z_MSC_RDPS_RelativeHumidity_IsbL-0350_RLatLon0.09_PT073H.grib2 2026-05-04 03:04 776K
20260504T00Z_MSC_RDPS_RelativeHumidity_IsbL-0400_RLatLon0.09_PT073H.grib2 2026-05-04 03:04 796K
20260504T00Z_MSC_RDPS_RelativeHumidity_IsbL-0450_RLatLon0.09_PT073H.grib2 2026-05-04 03:04 799K
20260504T00Z_MSC_RDPS_RelativeHumidity_IsbL-0500_RLatLon0.09_PT073H.grib2 2026-05-04 03:04 798K
20260504T00Z_MSC_RDPS_RelativeHumidity_IsbL-0550_RLatLon0.09_PT073H.grib2 2026-05-04 03:04 816K
20260504T00Z_MSC_RDPS_RelativeHumidity_IsbL-0600_RLatLon0.09_PT073H.grib2 2026-05-04 03:04 832K
20260504T00Z_MSC_RDPS_RelativeHumidity_IsbL-0650_RLatLon0.09_PT073H.grib2 2026-05-04 03:04 843K
20260504T00Z_MSC_RDPS_RelativeHumidity_IsbL-0700_RLatLon0.09_PT073H.grib2 2026-05-04 03:04 866K
20260504T00Z_MSC_RDPS_RelativeHumidity_IsbL-0750_RLatLon0.09_PT073H.grib2 2026-05-04 03:04 906K
20260504T00Z_MSC_RDPS_RelativeHumidity_IsbL-0800_RLatLon0.09_PT073H.grib2 2026-05-04 03:04 1.0M
20260504T00Z_MSC_RDPS_RelativeHumidity_IsbL-0850_RLatLon0.09_PT073H.grib2 2026-05-04 03:04 1.0M
20260504T00Z_MSC_RDPS_RelativeHumidity_IsbL-0875_RLatLon0.09_PT073H.grib2 2026-05-04 03:04 1.1M
20260504T00Z_MSC_RDPS_RelativeHumidity_IsbL-0900_RLatLon0.09_PT073H.grib2 2026-05-04 03:04 1.1M
20260504T00Z_MSC_RDPS_RelativeHumidity_IsbL-0925_RLatLon0.09_PT073H.grib2 2026-05-04 03:04 1.1M
20260504T00Z_MSC_RDPS_RelativeHumidity_IsbL-0950_RLatLon0.09_PT073H.grib2 2026-05-04 03:04 1.1M
20260504T00Z_MSC_RDPS_RelativeHumidity_IsbL-0970_RLatLon0.09_PT073H.grib2 2026-05-04 03:04 1.0M
20260504T00Z_MSC_RDPS_RelativeHumidity_IsbL-0985_RLatLon0.09_PT073H.grib2 2026-05-04 03:04 1.0M
20260504T00Z_MSC_RDPS_RelativeHumidity_IsbL-1000_RLatLon0.09_PT073H.grib2 2026-05-04 03:04 1.0M
20260504T00Z_MSC_RDPS_RelativeHumidity_IsbL-1015_RLatLon0.09_PT073H.grib2 2026-05-04 03:04 1.0M
20260504T00Z_MSC_RDPS_Runoff-Accum_Sfc_RLatLon0.09_PT073H.grib2 2026-05-04 03:04 68K
20260504T00Z_MSC_RDPS_SWEATIndex_Sfc_RLatLon0.09_PT073H.grib2 2026-05-04 03:04 2.4M
20260504T00Z_MSC_RDPS_SeeingIndex_EAtm_RLatLon0.09_PT073H.grib2 2026-05-04 03:04 1.0M
20260504T00Z_MSC_RDPS_SensibleHeatNetFlux_Sfc_RLatLon0.09_PT073H.grib2 2026-05-04 03:04 299K
20260504T00Z_MSC_RDPS_ShowalterIndex_IsbL-0500_RLatLon0.09_PT073H.grib2 2026-05-04 03:04 2.6M
20260504T00Z_MSC_RDPS_SkyTransparencyIndex_EAtm_RLatLon0.09_PT073H.grib2 2026-05-04 03:04 729K
20260504T00Z_MSC_RDPS_Snow-Accum1h_Sfc_RLatLon0.09_PT073H.grib2 2026-05-04 03:04 470K
20260504T00Z_MSC_RDPS_Snow-Accum_Sfc_RLatLon0.09_PT073H.grib2 2026-05-04 03:04 792K
20260504T00Z_MSC_RDPS_SnowDensity_Sfc_RLatLon0.09_PT073H.grib2 2026-05-04 03:04 175K
20260504T00Z_MSC_RDPS_SnowDepth_Sfc_RLatLon0.09_PT073H.grib2 2026-05-04 03:04 648K
20260504T00Z_MSC_RDPS_SoilTemp_DBS-0to10cm_RLatLon0.09_PT073H.grib2 2026-05-04 03:04 249K
20260504T00Z_MSC_RDPS_SoilTemp_Sfc_RLatLon0.09_PT073H.grib2 2026-05-04 03:04 266K
20260504T00Z_MSC_RDPS_SoilVolumetricIceContent_Sfc_RLatLon0.09_PT073H.grib2 2026-05-04 03:04 150K
20260504T00Z_MSC_RDPS_SoilVolumetricWaterContent_DBS-0to10cm_RLatLon0.09_PT073H.grib2 2026-05-04 03:04 282K
20260504T00Z_MSC_RDPS_SoilVolumetricWaterContent_DBS-0to1cm_RLatLon0.09_PT073H.grib2 2026-05-04 03:04 344K
20260504T00Z_MSC_RDPS_SpecificHumidity_AGL-120m_RLatLon0.09_PT073H.grib2 2026-05-04 03:04 490K
20260504T00Z_MSC_RDPS_SpecificHumidity_AGL-2m_RLatLon0.09_PT073H.grib2 2026-05-04 03:04 661K
20260504T00Z_MSC_RDPS_SpecificHumidity_AGL-40m_RLatLon0.09_PT073H.grib2 2026-05-04 03:04 496K
20260504T00Z_MSC_RDPS_SpecificHumidity_AGL-80m_RLatLon0.09_PT073H.grib2 2026-05-04 03:04 491K
20260504T00Z_MSC_RDPS_SpecificHumidity_IsbL-0001_RLatLon0.09_PT073H.grib2 2026-05-04 03:04 373K
20260504T00Z_MSC_RDPS_SpecificHumidity_IsbL-0005_RLatLon0.09_PT073H.grib2 2026-05-04 03:04 364K
20260504T00Z_MSC_RDPS_SpecificHumidity_IsbL-0010_RLatLon0.09_PT073H.grib2 2026-05-04 03:04 397K
20260504T00Z_MSC_RDPS_SpecificHumidity_IsbL-0020_RLatLon0.09_PT073H.grib2 2026-05-04 03:04 373K
20260504T00Z_MSC_RDPS_SpecificHumidity_IsbL-0030_RLatLon0.09_PT073H.grib2 2026-05-04 03:04 361K
20260504T00Z_MSC_RDPS_SpecificHumidity_IsbL-0050_RLatLon0.09_PT073H.grib2 2026-05-04 03:04 438K
20260504T00Z_MSC_RDPS_SpecificHumidity_IsbL-0100_RLatLon0.09_PT073H.grib2 2026-05-04 03:04 442K
20260504T00Z_MSC_RDPS_SpecificHumidity_IsbL-0150_RLatLon0.09_PT073H.grib2 2026-05-04 03:04 460K
20260504T00Z_MSC_RDPS_SpecificHumidity_IsbL-0175_RLatLon0.09_PT073H.grib2 2026-05-04 03:04 445K
20260504T00Z_MSC_RDPS_SpecificHumidity_IsbL-0200_RLatLon0.09_PT073H.grib2 2026-05-04 03:04 474K
20260504T00Z_MSC_RDPS_SpecificHumidity_IsbL-0225_RLatLon0.09_PT073H.grib2 2026-05-04 03:04 456K
20260504T00Z_MSC_RDPS_SpecificHumidity_IsbL-0250_RLatLon0.09_PT073H.grib2 2026-05-04 03:04 560K
20260504T00Z_MSC_RDPS_SpecificHumidity_IsbL-0275_RLatLon0.09_PT073H.grib2 2026-05-04 03:04 473K
20260504T00Z_MSC_RDPS_SpecificHumidity_IsbL-0300_RLatLon0.09_PT073H.grib2 2026-05-04 03:04 545K
20260504T00Z_MSC_RDPS_SpecificHumidity_IsbL-0350_RLatLon0.09_PT073H.grib2 2026-05-04 03:04 540K
20260504T00Z_MSC_RDPS_SpecificHumidity_IsbL-0400_RLatLon0.09_PT073H.grib2 2026-05-04 03:04 526K
20260504T00Z_MSC_RDPS_SpecificHumidity_IsbL-0450_RLatLon0.09_PT073H.grib2 2026-05-04 03:04 575K
20260504T00Z_MSC_RDPS_SpecificHumidity_IsbL-0500_RLatLon0.09_PT073H.grib2 2026-05-04 03:04 507K
20260504T00Z_MSC_RDPS_SpecificHumidity_IsbL-0550_RLatLon0.09_PT073H.grib2 2026-05-04 03:04 564K
20260504T00Z_MSC_RDPS_SpecificHumidity_IsbL-0600_RLatLon0.09_PT073H.grib2 2026-05-04 03:04 632K
20260504T00Z_MSC_RDPS_SpecificHumidity_IsbL-0650_RLatLon0.09_PT073H.grib2 2026-05-04 03:04 548K
20260504T00Z_MSC_RDPS_SpecificHumidity_IsbL-0700_RLatLon0.09_PT073H.grib2 2026-05-04 03:04 588K
20260504T00Z_MSC_RDPS_SpecificHumidity_IsbL-0750_RLatLon0.09_PT073H.grib2 2026-05-04 03:04 654K
20260504T00Z_MSC_RDPS_SpecificHumidity_IsbL-0800_RLatLon0.09_PT073H.grib2 2026-05-04 03:04 731K
20260504T00Z_MSC_RDPS_SpecificHumidity_IsbL-0850_RLatLon0.09_PT073H.grib2 2026-05-04 03:04 813K
20260504T00Z_MSC_RDPS_SpecificHumidity_IsbL-0875_RLatLon0.09_PT073H.grib2 2026-05-04 03:04 702K
20260504T00Z_MSC_RDPS_SpecificHumidity_IsbL-0900_RLatLon0.09_PT073H.grib2 2026-05-04 03:04 712K
20260504T00Z_MSC_RDPS_SpecificHumidity_IsbL-0925_RLatLon0.09_PT073H.grib2 2026-05-04 03:04 714K
20260504T00Z_MSC_RDPS_SpecificHumidity_IsbL-0950_RLatLon0.09_PT073H.grib2 2026-05-04 03:04 710K
20260504T00Z_MSC_RDPS_SpecificHumidity_IsbL-0970_RLatLon0.09_PT073H.grib2 2026-05-04 03:04 700K
20260504T00Z_MSC_RDPS_SpecificHumidity_IsbL-0985_RLatLon0.09_PT073H.grib2 2026-05-04 03:04 692K
20260504T00Z_MSC_RDPS_SpecificHumidity_IsbL-1000_RLatLon0.09_PT073H.grib2 2026-05-04 03:04 687K
20260504T00Z_MSC_RDPS_SpecificHumidity_IsbL-1015_RLatLon0.09_PT073H.grib2 2026-05-04 03:04 675K
20260504T00Z_MSC_RDPS_SpecificHumidity_Sfc_RLatLon0.09_PT073H.grib2 2026-05-04 03:04 329K
20260504T00Z_MSC_RDPS_StormRelativeHelicity_EtaL-10000_RLatLon0.09_PT073H.grib2 2026-05-04 03:04 1.1M
20260504T00Z_MSC_RDPS_StormSeverityIndex_EtaL-10000_RLatLon0.09_PT073H.grib2 2026-05-04 03:04 1.2M
20260504T00Z_MSC_RDPS_Thickness_IsbL-0850to0700_RLatLon0.09_PT073H.grib2 2026-05-04 03:04 174K
20260504T00Z_MSC_RDPS_Thickness_IsbL-1000to0500_RLatLon0.09_PT073H.grib2 2026-05-04 03:04 193K
20260504T00Z_MSC_RDPS_Thickness_IsbL-1000to0850_RLatLon0.09_PT073H.grib2 2026-05-04 03:04 181K
20260504T00Z_MSC_RDPS_TotalCloudCover_Sfc_RLatLon0.09_PT073H.grib2 2026-05-04 03:04 664K
20260504T00Z_MSC_RDPS_TotalTotalsIndex_Sfc_RLatLon0.09_PT073H.grib2 2026-05-04 03:04 2.4M
20260504T00Z_MSC_RDPS_UVIndex-ClearSky_Sfc_RLatLon0.09_PT073H.grib2 2026-05-04 03:04 148K
20260504T00Z_MSC_RDPS_UVIndex_Sfc_RLatLon0.09_PT073H.grib2 2026-05-04 03:04 325K
20260504T00Z_MSC_RDPS_UpwardLongwaveRadiationFlux_NTAtm_RLatLon0.09_PT073H.grib2 2026-05-04 03:04 490K
20260504T00Z_MSC_RDPS_UpwardShortwaveRadiationFlux_NTAtm_RLatLon0.09_PT073H.grib2 2026-05-04 03:04 295K
20260504T00Z_MSC_RDPS_VerticalVelocity_IsbL-0250_RLatLon0.09_PT073H.grib2 2026-05-04 03:04 716K
20260504T00Z_MSC_RDPS_VerticalVelocity_IsbL-0500_RLatLon0.09_PT073H.grib2 2026-05-04 03:04 540K
20260504T00Z_MSC_RDPS_VerticalVelocity_IsbL-0700_RLatLon0.09_PT073H.grib2 2026-05-04 03:04 588K
20260504T00Z_MSC_RDPS_VerticalVelocity_IsbL-0850_RLatLon0.09_PT073H.grib2 2026-05-04 03:04 689K
20260504T00Z_MSC_RDPS_VerticalWindShear_EtaL-6500_RLatLon0.09_PT073H.grib2 2026-05-04 03:04 1.2M
20260504T00Z_MSC_RDPS_WindChill_Sfc_RLatLon0.09_PT073H.grib2 2026-05-04 03:04 1.1M
20260504T00Z_MSC_RDPS_WindDir_AGL-10m_RLatLon0.09_PT073H.grib2 2026-05-04 03:04 944K
20260504T00Z_MSC_RDPS_WindDir_AGL-120m_RLatLon0.09_PT073H.grib2 2026-05-04 03:04 591K
20260504T00Z_MSC_RDPS_WindDir_AGL-40m_RLatLon0.09_PT073H.grib2 2026-05-04 03:04 616K
20260504T00Z_MSC_RDPS_WindDir_AGL-80m_RLatLon0.09_PT073H.grib2 2026-05-04 03:04 601K
20260504T00Z_MSC_RDPS_WindDir_IsbL-0001_RLatLon0.09_PT073H.grib2 2026-05-04 03:04 305K
20260504T00Z_MSC_RDPS_WindDir_IsbL-0005_RLatLon0.09_PT073H.grib2 2026-05-04 03:04 367K
20260504T00Z_MSC_RDPS_WindDir_IsbL-0010_RLatLon0.09_PT073H.grib2 2026-05-04 03:04 382K
20260504T00Z_MSC_RDPS_WindDir_IsbL-0020_RLatLon0.09_PT073H.grib2 2026-05-04 03:04 405K
20260504T00Z_MSC_RDPS_WindDir_IsbL-0030_RLatLon0.09_PT073H.grib2 2026-05-04 03:04 406K
20260504T00Z_MSC_RDPS_WindDir_IsbL-0050_RLatLon0.09_PT073H.grib2 2026-05-04 03:04 413K
20260504T00Z_MSC_RDPS_WindDir_IsbL-0100_RLatLon0.09_PT073H.grib2 2026-05-04 03:04 406K
20260504T00Z_MSC_RDPS_WindDir_IsbL-0150_RLatLon0.09_PT073H.grib2 2026-05-04 03:04 411K
20260504T00Z_MSC_RDPS_WindDir_IsbL-0175_RLatLon0.09_PT073H.grib2 2026-05-04 03:04 435K
20260504T00Z_MSC_RDPS_WindDir_IsbL-0200_RLatLon0.09_PT073H.grib2 2026-05-04 03:04 454K
20260504T00Z_MSC_RDPS_WindDir_IsbL-0225_RLatLon0.09_PT073H.grib2 2026-05-04 03:04 458K
20260504T00Z_MSC_RDPS_WindDir_IsbL-0250_RLatLon0.09_PT073H.grib2 2026-05-04 03:04 453K
20260504T00Z_MSC_RDPS_WindDir_IsbL-0275_RLatLon0.09_PT073H.grib2 2026-05-04 03:04 469K
20260504T00Z_MSC_RDPS_WindDir_IsbL-0300_RLatLon0.09_PT073H.grib2 2026-05-04 03:04 466K
20260504T00Z_MSC_RDPS_WindDir_IsbL-0350_RLatLon0.09_PT073H.grib2 2026-05-04 03:04 492K
20260504T00Z_MSC_RDPS_WindDir_IsbL-0400_RLatLon0.09_PT073H.grib2 2026-05-04 03:04 514K
20260504T00Z_MSC_RDPS_WindDir_IsbL-0450_RLatLon0.09_PT073H.grib2 2026-05-04 03:04 532K
20260504T00Z_MSC_RDPS_WindDir_IsbL-0500_RLatLon0.09_PT073H.grib2 2026-05-04 03:04 544K
20260504T00Z_MSC_RDPS_WindDir_IsbL-0550_RLatLon0.09_PT073H.grib2 2026-05-04 03:04 557K
20260504T00Z_MSC_RDPS_WindDir_IsbL-0600_RLatLon0.09_PT073H.grib2 2026-05-04 03:04 589K
20260504T00Z_MSC_RDPS_WindDir_IsbL-0650_RLatLon0.09_PT073H.grib2 2026-05-04 03:04 631K
20260504T00Z_MSC_RDPS_WindDir_IsbL-0700_RLatLon0.09_PT073H.grib2 2026-05-04 03:04 672K
20260504T00Z_MSC_RDPS_WindDir_IsbL-0750_RLatLon0.09_PT073H.grib2 2026-05-04 03:04 718K
20260504T00Z_MSC_RDPS_WindDir_IsbL-0800_RLatLon0.09_PT073H.grib2 2026-05-04 03:04 783K
20260504T00Z_MSC_RDPS_WindDir_IsbL-0850_RLatLon0.09_PT073H.grib2 2026-05-04 03:04 852K
20260504T00Z_MSC_RDPS_WindDir_IsbL-0875_RLatLon0.09_PT073H.grib2 2026-05-04 03:04 878K
20260504T00Z_MSC_RDPS_WindDir_IsbL-0900_RLatLon0.09_PT073H.grib2 2026-05-04 03:04 891K
20260504T00Z_MSC_RDPS_WindDir_IsbL-0925_RLatLon0.09_PT073H.grib2 2026-05-04 03:04 898K
20260504T00Z_MSC_RDPS_WindDir_IsbL-0950_RLatLon0.09_PT073H.grib2 2026-05-04 03:04 899K
20260504T00Z_MSC_RDPS_WindDir_IsbL-0970_RLatLon0.09_PT073H.grib2 2026-05-04 03:04 899K
20260504T00Z_MSC_RDPS_WindDir_IsbL-0985_RLatLon0.09_PT073H.grib2 2026-05-04 03:04 907K
20260504T00Z_MSC_RDPS_WindDir_IsbL-1000_RLatLon0.09_PT073H.grib2 2026-05-04 03:04 920K
20260504T00Z_MSC_RDPS_WindDir_IsbL-1015_RLatLon0.09_PT073H.grib2 2026-05-04 03:04 936K
20260504T00Z_MSC_RDPS_WindGust-Max_AGL-10m_RLatLon0.09_PT073H.grib2 2026-05-04 03:04 951K
20260504T00Z_MSC_RDPS_WindGust-Min_AGL-10m_RLatLon0.09_PT073H.grib2 2026-05-04 03:04 973K
20260504T00Z_MSC_RDPS_WindGust_AGL-10m_RLatLon0.09_PT073H.grib2 2026-05-04 03:04 1.0M
20260504T00Z_MSC_RDPS_WindSpeed_AGL-10m_RLatLon0.09_PT073H.grib2 2026-05-04 03:04 830K
20260504T00Z_MSC_RDPS_WindSpeed_AGL-120m_RLatLon0.09_PT073H.grib2 2026-05-04 03:04 528K
20260504T00Z_MSC_RDPS_WindSpeed_AGL-40m_RLatLon0.09_PT073H.grib2 2026-05-04 03:04 533K
20260504T00Z_MSC_RDPS_WindSpeed_AGL-80m_RLatLon0.09_PT073H.grib2 2026-05-04 03:04 529K
20260504T00Z_MSC_RDPS_WindSpeed_IsbL-0001_RLatLon0.09_PT073H.grib2 2026-05-04 03:04 332K
20260504T00Z_MSC_RDPS_WindSpeed_IsbL-0005_RLatLon0.09_PT073H.grib2 2026-05-04 03:04 293K
20260504T00Z_MSC_RDPS_WindSpeed_IsbL-0010_RLatLon0.09_PT073H.grib2 2026-05-04 03:04 398K
20260504T00Z_MSC_RDPS_WindSpeed_IsbL-0020_RLatLon0.09_PT073H.grib2 2026-05-04 03:04 419K
20260504T00Z_MSC_RDPS_WindSpeed_IsbL-0030_RLatLon0.09_PT073H.grib2 2026-05-04 03:04 317K
20260504T00Z_MSC_RDPS_WindSpeed_IsbL-0050_RLatLon0.09_PT073H.grib2 2026-05-04 03:04 346K
20260504T00Z_MSC_RDPS_WindSpeed_IsbL-0100_RLatLon0.09_PT073H.grib2 2026-05-04 03:04 431K
20260504T00Z_MSC_RDPS_WindSpeed_IsbL-0150_RLatLon0.09_PT073H.grib2 2026-05-04 03:04 397K
20260504T00Z_MSC_RDPS_WindSpeed_IsbL-0175_RLatLon0.09_PT073H.grib2 2026-05-04 03:04 422K
20260504T00Z_MSC_RDPS_WindSpeed_IsbL-0200_RLatLon0.09_PT073H.grib2 2026-05-04 03:04 440K
20260504T00Z_MSC_RDPS_WindSpeed_IsbL-0225_RLatLon0.09_PT073H.grib2 2026-05-04 03:04 445K
20260504T00Z_MSC_RDPS_WindSpeed_IsbL-0250_RLatLon0.09_PT073H.grib2 2026-05-04 03:04 445K
20260504T00Z_MSC_RDPS_WindSpeed_IsbL-0275_RLatLon0.09_PT073H.grib2 2026-05-04 03:04 462K
20260504T00Z_MSC_RDPS_WindSpeed_IsbL-0300_RLatLon0.09_PT073H.grib2 2026-05-04 03:04 460K
20260504T00Z_MSC_RDPS_WindSpeed_IsbL-0350_RLatLon0.09_PT073H.grib2 2026-05-04 03:04 475K
20260504T00Z_MSC_RDPS_WindSpeed_IsbL-0400_RLatLon0.09_PT073H.grib2 2026-05-04 03:04 463K
20260504T00Z_MSC_RDPS_WindSpeed_IsbL-0450_RLatLon0.09_PT073H.grib2 2026-05-04 03:04 461K
20260504T00Z_MSC_RDPS_WindSpeed_IsbL-0500_RLatLon0.09_PT073H.grib2 2026-05-04 03:04 459K
20260504T00Z_MSC_RDPS_WindSpeed_IsbL-0550_RLatLon0.09_PT073H.grib2 2026-05-04 03:04 577K
20260504T00Z_MSC_RDPS_WindSpeed_IsbL-0600_RLatLon0.09_PT073H.grib2 2026-05-04 03:04 586K
20260504T00Z_MSC_RDPS_WindSpeed_IsbL-0650_RLatLon0.09_PT073H.grib2 2026-05-04 03:04 650K
20260504T00Z_MSC_RDPS_WindSpeed_IsbL-0700_RLatLon0.09_PT073H.grib2 2026-05-04 03:04 672K
20260504T00Z_MSC_RDPS_WindSpeed_IsbL-0750_RLatLon0.09_PT073H.grib2 2026-05-04 03:04 702K
20260504T00Z_MSC_RDPS_WindSpeed_IsbL-0800_RLatLon0.09_PT073H.grib2 2026-05-04 03:04 751K
20260504T00Z_MSC_RDPS_WindSpeed_IsbL-0850_RLatLon0.09_PT073H.grib2 2026-05-04 03:04 814K
20260504T00Z_MSC_RDPS_WindSpeed_IsbL-0875_RLatLon0.09_PT073H.grib2 2026-05-04 03:04 789K
20260504T00Z_MSC_RDPS_WindSpeed_IsbL-0900_RLatLon0.09_PT073H.grib2 2026-05-04 03:04 803K
20260504T00Z_MSC_RDPS_WindSpeed_IsbL-0925_RLatLon0.09_PT073H.grib2 2026-05-04 03:04 814K
20260504T00Z_MSC_RDPS_WindSpeed_IsbL-0950_RLatLon0.09_PT073H.grib2 2026-05-04 03:04 861K
20260504T00Z_MSC_RDPS_WindSpeed_IsbL-0970_RLatLon0.09_PT073H.grib2 2026-05-04 03:04 859K
20260504T00Z_MSC_RDPS_WindSpeed_IsbL-0985_RLatLon0.09_PT073H.grib2 2026-05-04 03:04 849K
20260504T00Z_MSC_RDPS_WindSpeed_IsbL-1000_RLatLon0.09_PT073H.grib2 2026-05-04 03:04 841K
20260504T00Z_MSC_RDPS_WindSpeed_IsbL-1015_RLatLon0.09_PT073H.grib2 2026-05-04 03:04 831K
20260504T00Z_MSC_RDPS_WindU_AGL-10m_RLatLon0.09_PT073H.grib2 2026-05-04 03:04 428K
20260504T00Z_MSC_RDPS_WindU_AGL-120m_RLatLon0.09_PT073H.grib2 2026-05-04 03:04 411K
20260504T00Z_MSC_RDPS_WindU_AGL-40m_RLatLon0.09_PT073H.grib2 2026-05-04 03:04 531K
20260504T00Z_MSC_RDPS_WindU_AGL-80m_RLatLon0.09_PT073H.grib2 2026-05-04 03:04 529K
20260504T00Z_MSC_RDPS_WindU_IsbL-0001_RLatLon0.09_PT073H.grib2 2026-05-04 03:04 242K
20260504T00Z_MSC_RDPS_WindU_IsbL-0005_RLatLon0.09_PT073H.grib2 2026-05-04 03:04 284K
20260504T00Z_MSC_RDPS_WindU_IsbL-0010_RLatLon0.09_PT073H.grib2 2026-05-04 03:04 299K
20260504T00Z_MSC_RDPS_WindU_IsbL-0020_RLatLon0.09_PT073H.grib2 2026-05-04 03:04 316K
20260504T00Z_MSC_RDPS_WindU_IsbL-0030_RLatLon0.09_PT073H.grib2 2026-05-04 03:04 350K
20260504T00Z_MSC_RDPS_WindU_IsbL-0050_RLatLon0.09_PT073H.grib2 2026-05-04 03:04 378K
20260504T00Z_MSC_RDPS_WindU_IsbL-0100_RLatLon0.09_PT073H.grib2 2026-05-04 03:04 330K
20260504T00Z_MSC_RDPS_WindU_IsbL-0150_RLatLon0.09_PT073H.grib2 2026-05-04 03:04 391K
20260504T00Z_MSC_RDPS_WindU_IsbL-0175_RLatLon0.09_PT073H.grib2 2026-05-04 03:04 415K
20260504T00Z_MSC_RDPS_WindU_IsbL-0200_RLatLon0.09_PT073H.grib2 2026-05-04 03:04 335K
20260504T00Z_MSC_RDPS_WindU_IsbL-0225_RLatLon0.09_PT073H.grib2 2026-05-04 03:04 337K
20260504T00Z_MSC_RDPS_WindU_IsbL-0250_RLatLon0.09_PT073H.grib2 2026-05-04 03:04 336K
20260504T00Z_MSC_RDPS_WindU_IsbL-0275_RLatLon0.09_PT073H.grib2 2026-05-04 03:04 349K
20260504T00Z_MSC_RDPS_WindU_IsbL-0300_RLatLon0.09_PT073H.grib2 2026-05-04 03:04 347K
20260504T00Z_MSC_RDPS_WindU_IsbL-0350_RLatLon0.09_PT073H.grib2 2026-05-04 03:04 359K
20260504T00Z_MSC_RDPS_WindU_IsbL-0400_RLatLon0.09_PT073H.grib2 2026-05-04 03:04 467K
20260504T00Z_MSC_RDPS_WindU_IsbL-0450_RLatLon0.09_PT073H.grib2 2026-05-04 03:04 466K
20260504T00Z_MSC_RDPS_WindU_IsbL-0500_RLatLon0.09_PT073H.grib2 2026-05-04 03:04 465K
20260504T00Z_MSC_RDPS_WindU_IsbL-0550_RLatLon0.09_PT073H.grib2 2026-05-04 03:04 466K
20260504T00Z_MSC_RDPS_WindU_IsbL-0600_RLatLon0.09_PT073H.grib2 2026-05-04 03:04 475K
20260504T00Z_MSC_RDPS_WindU_IsbL-0650_RLatLon0.09_PT073H.grib2 2026-05-04 03:04 492K
20260504T00Z_MSC_RDPS_WindU_IsbL-0700_RLatLon0.09_PT073H.grib2 2026-05-04 03:04 497K
20260504T00Z_MSC_RDPS_WindU_IsbL-0750_RLatLon0.09_PT073H.grib2 2026-05-04 03:04 523K
20260504T00Z_MSC_RDPS_WindU_IsbL-0800_RLatLon0.09_PT073H.grib2 2026-05-04 03:04 566K
20260504T00Z_MSC_RDPS_WindU_IsbL-0850_RLatLon0.09_PT073H.grib2 2026-05-04 03:04 630K
20260504T00Z_MSC_RDPS_WindU_IsbL-0875_RLatLon0.09_PT073H.grib2 2026-05-04 03:04 647K
20260504T00Z_MSC_RDPS_WindU_IsbL-0900_RLatLon0.09_PT073H.grib2 2026-05-04 03:04 657K
20260504T00Z_MSC_RDPS_WindU_IsbL-0925_RLatLon0.09_PT073H.grib2 2026-05-04 03:04 664K
20260504T00Z_MSC_RDPS_WindU_IsbL-0950_RLatLon0.09_PT073H.grib2 2026-05-04 03:04 654K
20260504T00Z_MSC_RDPS_WindU_IsbL-0970_RLatLon0.09_PT073H.grib2 2026-05-04 03:04 650K
20260504T00Z_MSC_RDPS_WindU_IsbL-0985_RLatLon0.09_PT073H.grib2 2026-05-04 03:04 646K
20260504T00Z_MSC_RDPS_WindU_IsbL-1000_RLatLon0.09_PT073H.grib2 2026-05-04 03:04 778K
20260504T00Z_MSC_RDPS_WindU_IsbL-1015_RLatLon0.09_PT073H.grib2 2026-05-04 03:04 771K
20260504T00Z_MSC_RDPS_WindV_AGL-10m_RLatLon0.09_PT073H.grib2 2026-05-04 03:04 426K
20260504T00Z_MSC_RDPS_WindV_AGL-120m_RLatLon0.09_PT073H.grib2 2026-05-04 03:04 525K
20260504T00Z_MSC_RDPS_WindV_AGL-40m_RLatLon0.09_PT073H.grib2 2026-05-04 03:04 528K
20260504T00Z_MSC_RDPS_WindV_AGL-80m_RLatLon0.09_PT073H.grib2 2026-05-04 03:04 526K
20260504T00Z_MSC_RDPS_WindV_IsbL-0001_RLatLon0.09_PT073H.grib2 2026-05-04 03:04 245K
20260504T00Z_MSC_RDPS_WindV_IsbL-0005_RLatLon0.09_PT073H.grib2 2026-05-04 03:04 287K
20260504T00Z_MSC_RDPS_WindV_IsbL-0010_RLatLon0.09_PT073H.grib2 2026-05-04 03:04 391K
20260504T00Z_MSC_RDPS_WindV_IsbL-0020_RLatLon0.09_PT073H.grib2 2026-05-04 03:04 318K
20260504T00Z_MSC_RDPS_WindV_IsbL-0030_RLatLon0.09_PT073H.grib2 2026-05-04 03:04 314K
20260504T00Z_MSC_RDPS_WindV_IsbL-0050_RLatLon0.09_PT073H.grib2 2026-05-04 03:04 340K
20260504T00Z_MSC_RDPS_WindV_IsbL-0100_RLatLon0.09_PT073H.grib2 2026-05-04 03:04 326K
20260504T00Z_MSC_RDPS_WindV_IsbL-0150_RLatLon0.09_PT073H.grib2 2026-05-04 03:04 388K
20260504T00Z_MSC_RDPS_WindV_IsbL-0175_RLatLon0.09_PT073H.grib2 2026-05-04 03:04 413K
20260504T00Z_MSC_RDPS_WindV_IsbL-0200_RLatLon0.09_PT073H.grib2 2026-05-04 03:04 430K
20260504T00Z_MSC_RDPS_WindV_IsbL-0225_RLatLon0.09_PT073H.grib2 2026-05-04 03:04 434K
20260504T00Z_MSC_RDPS_WindV_IsbL-0250_RLatLon0.09_PT073H.grib2 2026-05-04 03:04 336K
20260504T00Z_MSC_RDPS_WindV_IsbL-0275_RLatLon0.09_PT073H.grib2 2026-05-04 03:04 350K
20260504T00Z_MSC_RDPS_WindV_IsbL-0300_RLatLon0.09_PT073H.grib2 2026-05-04 03:04 347K
20260504T00Z_MSC_RDPS_WindV_IsbL-0350_RLatLon0.09_PT073H.grib2 2026-05-04 03:04 359K
20260504T00Z_MSC_RDPS_WindV_IsbL-0400_RLatLon0.09_PT073H.grib2 2026-05-04 03:04 362K
20260504T00Z_MSC_RDPS_WindV_IsbL-0450_RLatLon0.09_PT073H.grib2 2026-05-04 03:04 361K
20260504T00Z_MSC_RDPS_WindV_IsbL-0500_RLatLon0.09_PT073H.grib2 2026-05-04 03:04 462K
20260504T00Z_MSC_RDPS_WindV_IsbL-0550_RLatLon0.09_PT073H.grib2 2026-05-04 03:04 463K
20260504T00Z_MSC_RDPS_WindV_IsbL-0600_RLatLon0.09_PT073H.grib2 2026-05-04 03:04 472K
20260504T00Z_MSC_RDPS_WindV_IsbL-0650_RLatLon0.09_PT073H.grib2 2026-05-04 03:04 489K
20260504T00Z_MSC_RDPS_WindV_IsbL-0700_RLatLon0.09_PT073H.grib2 2026-05-04 03:04 509K
20260504T00Z_MSC_RDPS_WindV_IsbL-0750_RLatLon0.09_PT073H.grib2 2026-05-04 03:04 533K
20260504T00Z_MSC_RDPS_WindV_IsbL-0800_RLatLon0.09_PT073H.grib2 2026-05-04 03:04 562K
20260504T00Z_MSC_RDPS_WindV_IsbL-0850_RLatLon0.09_PT073H.grib2 2026-05-04 03:04 614K
20260504T00Z_MSC_RDPS_WindV_IsbL-0875_RLatLon0.09_PT073H.grib2 2026-05-04 03:04 634K
20260504T00Z_MSC_RDPS_WindV_IsbL-0900_RLatLon0.09_PT073H.grib2 2026-05-04 03:04 646K
20260504T00Z_MSC_RDPS_WindV_IsbL-0925_RLatLon0.09_PT073H.grib2 2026-05-04 03:04 654K
20260504T00Z_MSC_RDPS_WindV_IsbL-0950_RLatLon0.09_PT073H.grib2 2026-05-04 03:04 652K
20260504T00Z_MSC_RDPS_WindV_IsbL-0970_RLatLon0.09_PT073H.grib2 2026-05-04 03:04 647K
20260504T00Z_MSC_RDPS_WindV_IsbL-0985_RLatLon0.09_PT073H.grib2 2026-05-04 03:04 782K
20260504T00Z_MSC_RDPS_WindV_IsbL-1000_RLatLon0.09_PT073H.grib2 2026-05-04 03:04 774K
20260504T00Z_MSC_RDPS_WindV_IsbL-1015_RLatLon0.09_PT073H.grib2 2026-05-04 03:04 813K